Stations météo

réclame
Mon MeteoGroup
Capo Carbonara, Italie (16564): Température de l'air & dewpoint: 18.04.2018 10:00:00 - 24.04.2018 10:00:00 (CEST)Capo Carbonara, Italie (16564): Vitesse du vent: 18.04.2018 10:00:00 - 24.04.2018 10:00:00 (CEST)Capo Carbonara, Italie (16564): Direction du vent: 18.04.2018 10:00:00 - 24.04.2018 10:00:00 (CEST)Capo Carbonara, Italie (16564): reduced air pressure: 18.04.2018 10:00:00 - 24.04.2018 10:00:00 (CEST)Capo Carbonara, Italie (16564): visibility: 18.04.2018 10:00:00 - 24.04.2018 10:00:00 (CEST)
Date & Time tt [°C] td [°C] ff [km/h] ff [knt] dd ppp [hPa] vv [km]
24.04.2018 10:00:00 - - - - - - -
24.04.2018 09:00:00 18,0 8,0 9 5 ENE - 10
24.04.2018 08:00:00 17,4 5,4 8 4 ENE 1019,0 18
24.04.2018 07:00:00 17,0 5,0 0 0 N - 10
24.04.2018 06:00:00 18,0 3,0 0 0 N - 10
24.04.2018 05:00:00 18,4 3,5 5 3 SSW 1019,0 20
24.04.2018 04:00:00 18,0 4,0 9 5 WSW - 10
24.04.2018 03:00:00 18,0 5,0 5 3 SW - 10
24.04.2018 02:00:00 17,8 7,0 9 5 SW 1019,2 20
24.04.2018 01:00:00 18,0 8,0 8 4 SSW - 10
24.04.2018 00:00:00 18,0 7,0 8 4 WSW - 10
23.04.2018 23:00:00 18,4 6,3 5 3 SW 1019,4 20
23.04.2018 22:00:00 18,0 8,0 0 0 N - 10
23.04.2018 21:00:00 19,0 8,0 8 4 ESE - 10
23.04.2018 20:00:00 20,0 8,4 4 2 SW 1018,9 20
23.04.2018 19:00:00 22,0 9,0 5 3 S - 10
23.04.2018 18:00:00 21,0 12,0 0 0 N - 10
23.04.2018 17:00:00 22,8 11,8 9 5 SW 1019,1 20
23.04.2018 16:00:00 23,0 12,0 9 5 S - 10
23.04.2018 15:00:00 23,0 11,0 11 6 S - 10
23.04.2018 14:00:00 22,4 12,1 8 4 SSE 1020,2 20
23.04.2018 13:00:00 22,0 10,0 13 7 SSE - 10
23.04.2018 12:00:00 22,0 9,0 9 5 ESE - 10
23.04.2018 11:00:00 19,0 13,4 11 6 SSW 1020,0 20
23.04.2018 10:00:00 18,0 10,0 0 0 N - 10
23.04.2018 09:00:00 17,0 10,0 5 3 SW - 10
23.04.2018 08:00:00 18,0 5,6 5 3 SW 1018,8 18
23.04.2018 07:00:00 18,0 6,0 13 7 WSW - 10
23.04.2018 06:00:00 17,0 7,0 15 8 WSW - 10
23.04.2018 05:00:00 16,8 8,5 16 9 NNE 1018,6 18
23.04.2018 04:00:00 17,0 8,0 15 8 WSW - 10
23.04.2018 03:00:00 18,0 9,0 16 9 NE - 10
23.04.2018 02:00:00 16,8 7,7 15 8 SW 1019,1 18
23.04.2018 01:00:00 18,0 8,0 8 4 SSW - 10
23.04.2018 00:00:00 18,0 8,0 11 6 SW - 10
22.04.2018 23:00:00 17,4 13,5 16 9 NE 1019,2 18
22.04.2018 22:00:00 18,0 13,0 8 4 WSW - 10
22.04.2018 21:00:00 18,0 14,0 5 3 WSW - 10
22.04.2018 20:00:00 20,8 13,7 5 3 S 1018,2 18
22.04.2018 19:00:00 22,0 13,0 9 5 S - 10
22.04.2018 18:00:00 23,0 12,0 11 6 S - 10
22.04.2018 17:00:00 22,8 15,9 11 6 SSW 1017,9 10
22.04.2018 16:00:00 23,0 14,0 11 6 SE - 10
22.04.2018 15:00:00 23,0 12,0 11 6 S - 10
22.04.2018 14:00:00 22,4 13,2 13 7 S 1018,5 18
22.04.2018 13:00:00 21,0 11,0 11 6 SSW - 10
22.04.2018 12:00:00 21,0 9,0 9 5 SSW - 10
22.04.2018 11:00:00 19,0 12,7 5 3 SW 1018,8 18
22.04.2018 10:00:00 18,0 12,0 4 2 SSE - 10
22.04.2018 09:00:00 18,0 9,0 4 2 SSE - 10
22.04.2018 08:00:00 17,0 7,6 8 4 SW 1018,4 18
22.04.2018 07:00:00 17,0 8,0 16 9 WSW - 10
22.04.2018 06:00:00 16,0 10,0 21 11 WSW - 10
22.04.2018 05:00:00 16,0 9,9 22 12 WSW 1018,3 18
22.04.2018 04:00:00 16,0 11,0 22 12 SW - 10
22.04.2018 03:00:00 16,0 13,0 22 12 SW - 10
22.04.2018 02:00:00 16,0 12,9 21 11 SW 1018,9 18
22.04.2018 01:00:00 17,0 14,0 16 9 SW - 10
22.04.2018 00:00:00 17,0 14,0 16 9 SSW - 10
21.04.2018 23:00:00 19,6 7,0 11 6 W 1019,0 10
21.04.2018 22:00:00 18,0 11,0 11 6 WSW - 10
21.04.2018 21:00:00 18,0 13,0 13 7 SW - 10
21.04.2018 20:00:00 17,6 12,5 15 8 SW 1018,6 18
21.04.2018 19:00:00 20,0 15,0 16 9 WSW - 10
21.04.2018 18:00:00 21,0 15,0 18 10 SW - 10
21.04.2018 17:00:00 21,0 14,2 18 10 SW 1018,7 18
21.04.2018 16:00:00 20,0 13,0 13 7 SW - 10
21.04.2018 15:00:00 20,0 12,0 13 7 SSW - 10
21.04.2018 14:00:00 21,4 14,6 13 7 SW 1019,3 20
21.04.2018 13:00:00 21,0 11,0 11 6 SSW - 10
21.04.2018 12:00:00 18,0 12,0 13 7 SW - 10
21.04.2018 11:00:00 18,0 10,6 8 4 WSW 1019,8 20
21.04.2018 10:00:00 17,0 12,0 0 0 N - 10
21.04.2018 09:00:00 17,0 10,0 0 0 N - 10
21.04.2018 08:00:00 15,6 10,2 13 7 WSW 1019,7 18
21.04.2018 07:00:00 15,0 12,0 15 8 SW - 10
21.04.2018 06:00:00 17,0 9,0 5 3 NE - 10
21.04.2018 05:00:00 17,4 9,8 8 4 NE 1019,6 18
21.04.2018 04:00:00 17,0 9,0 15 8 NE - 10
21.04.2018 03:00:00 16,0 12,0 9 5 ENE - 10
21.04.2018 02:00:00 15,6 12,4 9 5 ENE 1020,1 18
21.04.2018 01:00:00 20,0 8,0 13 7 W - 10
21.04.2018 00:00:00 19,0 9,0 13 7 W - 10
20.04.2018 23:00:00 19,0 10,0 5 3 W 1020,2 18
20.04.2018 22:00:00 17,0 14,0 15 8 WSW - 10
20.04.2018 21:00:00 17,0 14,0 21 11 SW - 10
20.04.2018 20:00:00 17,8 12,7 15 8 SW 1020,1 18
20.04.2018 19:00:00 20,0 11,0 9 5 SW - 10
20.04.2018 18:00:00 22,0 11,0 11 6 SSW - 10
20.04.2018 17:00:00 22,8 10,2 8 4 ENE 1020,8 20
20.04.2018 16:00:00 21,0 11,0 11 6 W - 10
20.04.2018 15:00:00 21,0 11,0 26 14 N - 10
20.04.2018 14:00:00 19,4 11,4 26 14 NNE 1021,5 18
20.04.2018 13:00:00 21,0 12,0 22 12 NE - 10
20.04.2018 12:00:00 19,0 11,0 15 8 NE - 10
20.04.2018 11:00:00 17,6 11,2 18 10 NE 1022,0 10
20.04.2018 10:00:00 18,0 11,0 11 6 ENE - 10
20.04.2018 09:00:00 19,0 9,0 9 5 NE - 10
20.04.2018 08:00:00 17,2 8,1 15 8 NNE 1021,3 20
20.04.2018 07:00:00 16,0 10,0 18 10 NNE - 10
20.04.2018 06:00:00 16,0 9,0 26 14 NNE - 10
20.04.2018 05:00:00 15,6 8,8 22 12 NNE 1021,6 20
20.04.2018 04:00:00 16,0 8,0 22 12 NNE - 10
20.04.2018 03:00:00 16,0 8,0 16 9 NE - 10
20.04.2018 02:00:00 15,8 7,8 18 10 NE 1022,4 20
20.04.2018 01:00:00 16,0 8,0 24 13 NE - 10
20.04.2018 00:00:00 17,0 9,0 21 11 NE - 10
19.04.2018 23:00:00 16,8 9,5 24 13 NNE 1022,8 10
19.04.2018 22:00:00 17,0 12,0 24 13 NE - 10
19.04.2018 21:00:00 17,0 10,0 26 14 NE - 10
19.04.2018 20:00:00 17,2 10,6 31 17 NE 1022,5 18
19.04.2018 19:00:00 18,0 11,0 34 18 NE - 10
19.04.2018 18:00:00 18,0 12,0 31 17 NE - 10
19.04.2018 17:00:00 18,4 13,7 29 16 ENE 1022,7 18
19.04.2018 16:00:00 19,0 13,0 28 15 ENE - 10
19.04.2018 15:00:00 19,0 13,0 29 16 ENE - 10
19.04.2018 14:00:00 19,2 12,5 34 18 NE 1023,2 18
19.04.2018 13:00:00 19,0 12,0 29 16 NE - 10
19.04.2018 12:00:00 19,0 12,0 34 18 NE - 10
19.04.2018 11:00:00 18,0 11,3 34 18 NE 1023,3 18
19.04.2018 10:00:00 17,0 11,0 28 15 NE - 10
19.04.2018 09:00:00 16,0 11,0 24 13 NE - 10
19.04.2018 08:00:00 15,6 11,2 24 13 NE 1023,1 20
19.04.2018 07:00:00 15,0 11,0 22 12 NE - 10
19.04.2018 06:00:00 15,0 12,0 26 14 NE - 10
19.04.2018 05:00:00 14,8 11,4 31 17 NE 1023,2 20
19.04.2018 04:00:00 15,0 10,0 35 19 NE - 10
19.04.2018 03:00:00 15,0 9,0 34 18 NE - 10
19.04.2018 02:00:00 15,6 9,5 31 17 NE 1023,1 20
19.04.2018 01:00:00 16,0 10,0 28 15 NNE - 10
19.04.2018 00:00:00 16,0 10,0 35 19 NNE - 10
18.04.2018 23:00:00 15,8 9,2 28 15 NE 1023,1 20
18.04.2018 22:00:00 16,0 10,0 24 13 NE - 10
18.04.2018 21:00:00 15,0 12,0 26 14 NE - 10
18.04.2018 20:00:00 16,0 11,0 24 13 NE 1022,1 20
18.04.2018 19:00:00 17,0 13,0 21 11 NE - 10
18.04.2018 18:00:00 18,0 11,0 28 15 NE - 10
18.04.2018 17:00:00 16,4 11,6 31 17 NE 1022,2 20
18.04.2018 16:00:00 18,0 13,0 29 16 ENE - 10
18.04.2018 15:00:00 16,0 12,0 34 18 NE - 10
18.04.2018 14:00:00 16,8 13,3 37 20 NE 1022,2 18
18.04.2018 13:00:00 16,0 13,0 42 23 NE - 10
18.04.2018 12:00:00 16,0 13,0 48 26 NE - 10
18.04.2018 11:00:00 17,2 12,1 46 25 NNE 1021,5 20
18.04.2018 10:00:00 17,0 12,0 26 14 NE - 10

tt = Température de l'air
td = dewpoint
ff = Vitesse du vent
dd = Direction du vent
ppp = reduced air pressure
vv = visibility

stations d'obs. à proximité